Regional Weather Roundup
Issued by NWS

Home | Current Version | Previous Version | Text Only | Print | Product List | Glossary On
Versions: 1 2 3 4 5 6 7 8 9 10 11 12 13 14 15 16 17 18 19 20 21 22 23 24 25 26 27 28 29 30 31 32 33 34 35 36 37 38 39 40 41 42 43 44 45 46 47 48 49 50
000
ASUS46 KSEW 211610
RWRWA

WASHINGTON REGIONAL WEATHER ROUNDUP
NATIONAL WEATHER SERVICE SEATTLE WA
800 AM PST SUN DEC 21 2014

NOTE:"FAIR" INDICATES FEW OR NO CLOUDS BELOW 12,000 FEET WITH NO
SIGNIFICANT WEATHER AND/OR OBSTRUCTIONS TO VISIBILITY.

WAZ505-507>509-211700-
SEATTLE, TACOMA, EVERETT, AND VICINITY

CITY           SKY/WX    TMP DP  RH WIND       PRES   REMARKS
EVERETT        CLOUDY    47  44  90 CALM      29.85R
BOEING FIELD   CLOUDY    54  47  77 SW3       29.84R
RENTON         CLOUDY    52  47  83 S9        29.84R
SEATAC AIRPORT CLOUDY    51  46  83 SW13G24   29.85R
JBLM-MCCHORD   CLOUDY    51  50  95 SW12      29.89R
PUYALLUP       NOT AVBL
JBLM-FT LEWIS  PTCLDY    50  50 100 VRB2      29.89R
TACOMA NARROWS CLOUDY    51  46  83 S7        29.88R
$$

WAZ001-503-506-510-514-515-211700-
NORTH INTERIOR

CITY           SKY/WX    TMP DP  RH WIND       PRES   REMARKS
BELLINGHAM     CLOUDY    49  42  77 S7        29.79R
FRIDAY HARBOR  CLOUDY    45  42  89 SW3       29.82R
EASTSOUND      CLOUDY    48  41  76 S9        29.78R
PORT ANGELES   MOCLDY    47  44  90 W8        29.83R
NAS WHIDBEY    CLOUDY    51  46  83 SW13      29.84R
BURLINGTON     CLOUDY    48  45  87 SW3       29.83R
$$

WAZ020-022-039-040-504-511-512-211700-
SOUTHWEST INTERIOR

CITY           SKY/WX    TMP DP  RH WIND       PRES   REMARKS
SHELTON        MOCLDY    50  47  89 SW15      29.85R
OLYMPIA        MOCLDY    52  47  83 SW9       29.89R
CHEHALIS       FAIR      54  50  87 VRB5      29.92R
KELSO          CLOUDY    52  48  87 CALM      29.99R
VANCOUVER      CLOUDY    54  48  80 VRB3      29.96R
SCAPPOOSE, OR  MOCLDY    51  48  89 CALM      29.96R
PORTLAND, OR   CLOUDY    54  49  83 SW13      29.96R
$$

WAZ021-516-517-211700-
WASHINGTON COAST

CITY           SKY/WX    TMP DP  RH WIND       PRES   REMARKS
FORKS          CLOUDY    51  49  92 W12       29.87R
HOQUIAM        LGT RAIN  53  50  89 W9        29.91R FOG
ASTORIA, OR    CLOUDY    54  52  93 SW10      29.96R
$$

WAZ019-023-024-040-518-519-211700-
CASCADE MOUNTAINS AND COLUMBIA GORGE

CITY           SKY/WX    TMP DP  RH WIND       PRES   REMARKS
STAMPEDE PASS  NOT AVBL
TROUTDALE, OR  CLOUDY    55  48  77 SW15G23   29.93S
THE DALLES, OR CLOUDY    52  47  83 NW6       29.88R
$$

WAZ026-027-041>044-520-521-211700-
EAST SLOPES

CITY           SKY/WX    TMP DP  RH WIND       PRES   REMARKS
OMAK           PTCLDY    34  32  92 S8        29.68R
WENATCHEE      CLOUDY    38  36  92 CALM      29.74R
ELLENSBURG     LGT RAIN  45  39  79 N8        29.75R
YAKIMA         MOCLDY    50  37  61 E5        29.78R
$$

WAZ028-034-035-211700-
COLUMBIA BASIN

CITY           SKY/WX    TMP DP  RH WIND       PRES   REMARKS
EPHRATA        MOCLDY    47  37  68 W20       29.70R
MOSES LAKE     MOCLDY    41  36  82 SW3       29.74R
PASCO          MOCLDY    54  41  61 W15       29.79R
HERMISTON, OR  CLOUDY    54  42  64 W15G24    29.83R
$$

WAZ036>038-211700-
NORTHEAST WASHINGTON

CITY           SKY/WX    TMP DP  RH WIND       PRES   REMARKS
SPOKANE GEIGER MOCLDY    42  35  76 W20       29.65R
SPOKANE FELTS  PTCLDY    39  36  89 S6        29.68R
FAIRCHILD AFB  PTCLDY    40  36  86 W18G29    29.64R
COEURDALENE,ID PTCLDY    39  36  87 SW21      29.63S
DEER PARK      PTCLDY    39  35  86 S12       29.65R
$$

WAZ029>033-211700-
SOUTHEAST WASHINGTON

CITY           SKY/WX    TMP DP  RH WIND       PRES   REMARKS
PULLMAN        CLOUDY    45  41  86 SW17G29   29.74R
LEWISTON, ID   LGT RAIN  54  40  59 W20G33    29.76R
WALLA WALLA    CLOUDY    53  43  68 SW24      29.83R
PENDLETON, OR  CLOUDY    50  42  74 W23G29    29.84R
$$



USA.gov is the U.S. government's official web portal to all federal, state and local government web resources and services.